SCP
0 0 0 0 0 0 0 0 0 0 0 0 0 0 0 0 0 0 0 0 0 0 0 0 0 0 0 0 0 0 0 0 0 0 0 0 0 0 0 0 0 0 0
0 0 0 0 0 0 0 0 0 0 0 0 0 0 0 0 0 0 0 0 0 0 0 0 0 0 0 0 0 0 0 0 0 0 0 0 0 0 0 0 0 0 0
0 0 0 0 0 0 0 0 0 0 0 0 0 0 0 0 0 0 0 0 0 0 0 0 0 0 0 0 0 0 0 0 0 0 0 0 0 0 0 0 0 0 0
0 0 0 0 0 0 0 0 0 0 0 0 0 0 0 0 0 0 0 0 0 0 0 0 0 0 0 0 0 0 0 0 0 0 0 0 0 0 0 0 0 0 0
0 0 0 0 0 0 0 0 0 0 0 0 0 0 0 0 0 0 0 0 0 0 0 0 0 0 0 0 0 0 0 0 0 0 0 0 0 0 0 0 0 0 0
0 0 0 0 0 0 0 0 0 0 0 0 0 0 0 0 0 0 0 0 0 0 0 0 0 0 0 0 0 0 0 0 0 0 0 0 0 0 0 0 0 0 0
0 0 0 0 0 0 0 0 0 0 0 0 0 0 0 0 0 0 0 0 0 0 0 0 0 0 0 0 0 0 0 0 0 0 0 0 0 0 0 0 0 0 0
0 0 0 0 0 0 0 0 0 0 0 0 0 0 0 0 0 0 0 0 0 0 0 0 0 0 0 0 0 0 0 0 0 0 0 0 0 0 0 0 0 0 0
0 0 0 0 0 0 0 0 0 0 0 0 0 0 0 0 0 0 0 0 0 0 0 0 0 0 0 0 0 0 0 0 0 0 0 0 0 0 0 0 0 0 0
0 0 0 0 0 0 0 0 0 0 0 0 0 0 0 0 0 0 0 0 0 0 0 0 0 0 0 0 0 0 0 0 0 0 0 0 0 0 0 0 0 0 0
0 0 0 0 0 0 0 0 0 0 0 0 0 0 0 0 0 0 0 0 0 0 0 0 0 0 0 0 0 0 0 0 1 1 1 1 1 1 1 0 0 0 0
0 0 0 1 1 1 0 0 0 0 0 0 0 0 0 0 0 0 0 0 0 0 0 0 0 0 0 1 1 1 1 1 1 1 1 1 1 1 1 1 0 0 0
0 0 1 1 1 1 1 0 0 0 0 0 0 0 0 0 0 0 0 0 0 0 0 0 0 0 0 0 1 1 0 0 1 1 1 1 1 1 1 1 0 0 0
1 1 1 1 1 1 1 1 0 0 0 0 0 0 0 0 0 0 0 0 0 0 0 0 0 0 0 0 0 0 0 0 0 1 1 0 0 0 0 1 1 1 1
1 1 1 1 1 1 1 1 1 0 0 0 0 0 0 0 0 0 0 0 0 0 0 0 0 0 0 0 0 0 0 0 0 0 0 0 0 0 0 0 0 1 1
1 1 1 1 1 1 1 1 1 1 1 0 0 0 0 1 1 1 0 1 1 1 0 0 0 0 0 0 0 0 0 0 0 0 1 0 0 0 0 0 0 0 0
1 1 1 1 1 1 1 1 1 1 1 1 1 1 0 1 1 1 1 1 1 1 1 1 1 0 0 0 0 0 0 0 0 1 1 0 0 0 0 0 0 0 0
1 1 1 1 1 1 1 1 1 1 1 1 1 1 1 1 1 1 1 1 1 1 1 1 1 1 0 0 0 0 0 0 1 1 1 1 0 0 0 0 0 0 0
1 1 1 1 1 1 1 1 1 1 1 1 1 1 1 1 1 1 1 1 1 1 1 1 1 1 1 0 0 0 0 0 0 0 0 0 0 0 0 0 0 0 0
1 1 1 1 1 1 1 1 1 1 1 1 1 1 1 1 1 1 1 1 1 1 1 1 1 1 1 0 0 0 0 0 0 0 0 0 0 0 0 0 0 0 0
1 1 1 1 1 1 1 1 1 1 1 1 1 1 1 1 1 1 1 1 1 1 1 1 1 1 1 0 0 0 0 0 0 0 0 0 0 0 0 0 0 0 0
1 1 1 1 1 1 1 1 1 1 1 1 1 1 1 1 1 1 1 1 1 1 1 1 1 1 1 0 0 0 0 0 0 0 0 0 0 0 0 0 0 0 0
1 1 1 1 1 1 1 1 1 1 1 1 1 1 1 1 1 1 1 1 1 1 1 1 1 1 1 0 0 0 0 0 0 0 0 0 0 0 0 0 0 0 0
1 1 1 1 1 1 1 1 1 1 1 1 1 1 1 1 1 1 1 1 1 1 1 1 1 1 1 0 0 0 0 0 0 0 0 0 0 0 0 0 0 0 0
1 1 1 1 1 1 1 1 1 1 1 1 1 1 1 1 1 1 1 1 1 1 1 1 1 1 1 0 0 0 0 0 0 0 0 0 0 0 0 0 0 0 0
1 1 1 1 1 1 1 1 1 1 1 1 1 1 1 1 1 1 1 0 0 0 0 0 0 0 0 0 0 0 0 0 0 0 1 1 1 0 0 0 0 0 0
Wind_Speed
8 8 7 7 6 6 5 5 4 4 3 2 1 1 2 1 1 1 2 1 1 2 1 1 1 1 1 2 1 1 1 0 0 1 0 1 1 0 0 1 1 1 1
9 9 8 8 8 7 6 6 6 5 4 2 1 1 0 0 1 1 2 1 1 1 0 1 1 1 1 1 1 1 1 1 1 2 2 1 2 1 1 1 1 1 1
10 11 10 9 8 8 7 6 6 5 5 4 3 2 2 2 2 2 1 1 1 1 1 1 2 2 2 1 2 1 2 2 1 2 3 3 1 1 1 1 1 1 2
10 11 11 10 10 9 8 7 6 6 6 5 4 4 2 2 1 1 1 1 0 0 1 1 1 2 2 1 2 1 2 3 2 0 1 2 3 3 1 2 1 1 2
11 11 11 10 9 9 8 7 7 7 6 6 5 5 4 2 2 2 2 1 1 0 0 1 1 1 2 2 3 2 3 2 3 2 1 1 1 3 3 2 2 1 1
10 10 10 10 9 8 8 8 8 7 7 7 6 6 5 3 2 2 1 2 1 1 0 0 1 2 2 2 2 2 2 3 3 3 2 2 2 2 2 3 3 2 1
10 10 11 11 10 9 8 8 8 8 7 8 7 6 6 5 4 4 3 2 1 1 1 0 1 1 1 2 2 2 2 2 2 2 2 2 2 2 3 3 3 3 2
9 10 10 10 10 10 9 8 7 7 6 6 6 6 6 5 4 3 3 2 1 0 1 1 1 1 2 2 1 2 1 1 2 2 3 3 3 3 3 3 4 4 3
9 9 9 9 9 9 9 8 8 7 6 6 6 5 5 5 3 3 3 2 1 1 1 1 1 1 1 2 2 1 2 2 2 2 2 3 3 3 3 3 4 5 5
8 8 8 8 7 7 8 8 7 7 6 6 6 5 5 5 4 4 3 2 1 1 1 2 2 2 2 2 2 2 1 2 2 2 3 3 3 2 3 3 4 4 5
7 7 7 7 7 7 7 7 8 7 7 6 5 5 5 5 5 4 4 3 3 2 2 2 2 2 2 2 2 3 2 3 3 3 3 3 4 3 3 3 3 4 4
5 6 7 7 7 7 6 7 7 7 7 6 6 6 5 5 5 5 4 4 3 3 3 3 3 3 2 2 3 4 3 3 3 3 4 4 3 3 4 3 4 3 4
4 6 6 6 6 6 6 6 6 6 6 6 6 6 5 5 5 5 4 4 4 4 3 3 3 3 3 3 3 3 4 4 3 3 4 4 4 4 4 4 4 4 4
5 6 7 6 6 5 5 5 6 6 6 6 5 5 5 5 5 5 5 4 4 4 4 3 3 3 3 3 3 4 4 4 3 3 4 4 4 4 5 4 4 4 5
5 6 7 6 6 5 5 5 5 5 5 5 5 5 4 4 4 4 4 4 4 4 3 4 4 4 4 3 3 4 4 4 4 4 4 4 3 4 5 5 4 5 5
5 5 6 6 6 6 5 5 5 4 5 4 4 4 4 3 3 4 4 4 4 4 4 4 4 4 3 0 2 5 4 4 4 4 4 4 3 3 3 4 5 6 6
4 5 5 5 5 5 5 5 5 5 4 4 3 3 4 3 3 3 3 3 4 4 4 4 4 4 2 1 2 5 5 5 4 4 4 4 2 3 3 4 5 5 6
3 4 4 5 5 5 5 4 5 5 5 4 3 3 3 3 3 3 3 3 3 4 4 4 5 4 2 2 3 4 6 5 4 4 4 4 4 3 4 5 4 5 4
2 2 3 4 4 4 5 5 4 5 4 4 3 3 3 3 3 2 2 3 3 4 4 4 4 4 3 3 4 5 5 4 4 4 4 4 4 3 5 5 5 5 4
2 2 3 4 5 5 5 5 4 4 3 3 3 3 3 3 3 2 2 2 3 3 4 3 4 4 4 3 4 5 5 4 4 4 4 4 4 3 4 5 5 5 5
1 2 2 3 4 5 5 4 4 3 3 2 2 3 3 3 3 2 2 2 3 3 3 4 4 4 4 4 5 6 5 4 5 4 4 2 3 4 4 6 5 5 6
1 2 2 3 3 4 4 4 3 2 2 2 2 2 2 3 2 2 2 3 3 3 4 4 4 3 3 3 5 7 7 6 5 4 4 1 4 5 5 5 4 5 7
1 1 2 3 3 3 4 4 3 3 2 2 2 2 2 2 2 2 3 3 3 3 3 3 3 3 2 3 5 7 7 7 5 4 2 2 4 6 6 6 6 6 6
1 2 2 2 2 2 2 2 2 2 3 3 2 2 2 2 2 2 2 2 2 3 3 3 3 3 2 2 2 3 4 6 6 5 3 6 7 6 4 4 5 5 4
1 1 2 1 1 2 2 2 2 3 3 2 2 2 3 2 2 2 2 3 2 3 4 4 3 3 3 1 2 3 3 3 3 5 5 4 4 4 4 4 3 4 4
1 1 1 1 1 1 1 1 1 2 3 3 3 3 3 2 2 2 2 1 2 1 3 4 5 4 2 2 2 4 5 5 5 5 5 5 4 4 4 4 4 4 4
Wind_Direction
175 177 181 179 175 174 175 181 179 167 180 171 172 149 140 141 124 116 95 90 70 70 43 28 47 349 23 0 348 352 75 79 322 245 184 169 164 137 234 261 267 201 221
179 182 185 185 185 183 184 184 185 182 190 169 172 158 133 165 112 92 95 87 84 52 100 28 350 27 28 19 353 325 315 307 287 292 275 235 178 165 163 215 230 283 256
188 184 188 191 190 186 188 190 189 187 194 181 185 172 176 195 166 157 148 146 107 68 20 5 355 342 340 17 330 309 298 301 296 317 305 307 348 314 177 240 261 289 291
192 187 187 190 191 187 186 189 191 191 190 192 203 208 208 190 156 194 116 151 96 31 27 4 349 324 334 340 303 2 301 288 293 266 302 323 330 296 269 219 219 263 265
191 189 188 187 190 187 187 184 186 190 191 198 200 215 218 203 192 190 146 232 163 242 346 345 330 307 312 343 332 330 312 305 308 308 296 278 244 264 280 296 293 258 256
187 187 186 184 187 187 188 184 182 188 192 199 205 216 219 218 222 219 192 222 189 183 129 313 317 299 321 320 313 311 312 322 317 306 300 284 291 289 287 284 275 291 298
183 183 184 184 186 187 188 186 184 189 192 199 205 211 214 216 219 231 215 246 231 185 123 300 295 310 310 297 300 291 321 308 301 294 303 307 301 300 295 290 296 295 269
182 183 184 185 186 185 186 186 186 190 191 201 205 208 210 220 220 219 247 239 258 171 101 209 247 278 283 293 299 289 288 298 296 300 307 298 297 296 289 290 293 286 273
178 181 181 180 184 184 183 184 184 187 190 200 205 203 207 218 219 209 222 229 235 219 195 241 254 260 266 290 278 290 301 297 282 284 265 279 294 288 287 282 283 285 287
176 176 176 175 176 179 180 180 179 178 180 191 202 194 199 206 209 216 212 234 244 257 248 250 261 263 267 274 274 261 266 271 275 294 313 299 294 298 282 278 277 274 281
178 176 173 169 169 173 174 175 176 174 177 187 193 202 201 200 203 210 212 214 223 230 245 253 263 268 270 277 281 289 279 272 279 281 281 286 302 297 286 273 268 269 271
169 166 163 160 163 167 171 174 175 174 177 181 185 192 198 201 206 206 213 216 219 228 236 252 260 263 264 268 272 279 282 274 273 280 285 284 282 276 281 285 279 278 274
162 156 156 156 159 163 167 170 176 177 176 177 184 188 193 201 210 214 215 217 222 230 238 243 252 262 263 263 268 275 280 278 277 277 276 281 285 283 288 280 278 275 269
162 160 157 160 161 162 165 171 180 182 178 183 193 194 199 205 212 215 217 218 223 229 236 242 245 253 256 257 264 265 267 270 272 271 273 278 279 282 281 272 269 276 276
166 166 166 166 168 169 170 173 178 181 182 188 195 196 204 206 214 217 219 218 225 230 232 244 244 249 248 255 264 263 258 263 268 270 272 276 291 310 301 298 297 286 276
173 173 172 171 177 177 177 173 178 179 183 191 193 191 200 203 209 215 221 224 226 233 237 243 247 249 258 79 271 271 264 260 260 265 268 262 245 253 259 282 296 296 283
183 181 180 181 182 183 176 175 177 176 180 185 186 181 187 193 205 221 224 234 236 231 234 240 245 249 240 184 239 263 265 260 263 267 271 276 278 262 262 248 238 249 255
203 188 186 183 181 173 167 168 166 165 164 167 172 177 186 191 199 214 226 235 240 236 236 240 245 248 232 187 224 255 253 260 261 262 266 275 279 288 294 277 273 272 262
220 206 198 182 166 160 155 157 161 164 165 166 172 179 187 194 204 218 232 238 243 243 240 237 242 243 237 201 214 241 249 248 253 256 255 263 268 297 293 272 273 277 269
211 211 195 172 154 153 156 162 162 164 174 178 184 190 194 198 206 214 230 240 245 248 252 246 248 245 246 207 203 231 249 247 248 242 238 232 258 274 276 266 271 276 280
194 185 179 168 157 158 161 166 167 174 183 186 192 206 207 208 210 214 227 240 244 247 253 252 250 246 246 207 194 215 251 256 254 250 244 214 178 220 250 268 276 288 290
160 167 163 156 156 163 166 166 176 181 180 188 200 219 233 238 197 202 224 233 238 237 239 239 243 241 233 222 203 206 232 269 260 261 262 226 174 214 236 253 274 279 277
162 178 164 159 165 174 178 177 181 178 177 188 203 218 225 236 229 225 229 230 230 244 244 244 247 245 239 200 195 203 219 241 258 271 286 257 217 223 228 234 245 249 255
199 197 172 176 178 184 189 182 179 185 193 199 207 217 223 227 217 243 246 252 255 258 259 260 262 258 247 254 225 218 219 225 238 257 232 213 222 238 256 230 226 241 261
230 201 170 157 182 187 193 197 193 199 202 207 224 237 236 234 235 246 284 276 289 300 287 285 283 281 270 302 326 285 265 262 256 259 251 245 230 231 234 239 242 243 241
225 218 194 158 151 205 228 230 222 220 224 224 229 240 242 236 241 234 235 211 254 227 239 268 279 281 306 304 263 267 279 276 264 255 250 252 250 249 250 245 241 242 250